Kapolei, HI

9:05 AM HST on February 10, 2016 (GMT -1000)
Kalaeloa (John Rodgers Field)

Weather History for PHJR - April, 2013

Change the Weather History Date:

Friday, April 12, 2013

  Actual Average (PHNL) Record (PHNL)
Temperature  
Mean Temperature 76 °F 76 °F  
Max Temperature 82 °F 83 °F 88 °F (1996)
Min Temperature 71 °F 69 °F 63 °F (1992)
Degree Days  
Heating Degree Days 0 0  
Month to date heating degree days 0  
Since 1 July heating degree days 0  
Cooling Degree Days 12 11  
Month to date cooling degree days 132  
Year to date cooling degree days 907  
Growing Degree Days 26 (Base 50)    
Moisture  
Dew Point 68 °F    
Average Humidity 77    
Maximum Humidity 87    
Minimum Humidity 65    
Precipitation  
Precipitation 0.00 in 0.02 in 0.17 in (1998)
Month to date precipitation 0.36  
Year to date precipitation 6.68  
Snow  
Snow 0.00 in - - ()
Month to date snowfall  
Since 1 July snowfall  
Snow Depth -    
Sea Level Pressure  
Sea Level Pressure 29.98 in    
Wind  
Wind Speed 4 mph (SE)    
Max Wind Speed 14 mph    
Max Gust Speed -    
Visibility 10 miles    
Events      
T = Trace of Precipitation, MM = Missing Value Source: NWS Daily Summary

Daily Weather History Graph

Daily Weather History Graph

Search for Another Location

Airport or City:

Trip Planner

Search our weather history database for the weather conditions in past years. The results will help you decide how hot, cold, wet, or windy it might be!

Date:

Astronomy

Apr. 12, 2013 Rise Set
Actual Time 6:15 AM HST 6:50 PM HST
Civil Twilight 5:52 AM HST 7:13 PM HST
Nautical Twilight 5:26 AM HST 7:39 PM HST
Astronomical Twilight 4:59 AM HST 8:06 PM HST
Moon 7:49 AM HST (4/12) 9:12 PM HST (4/12)
Length of Visible Light 13h 20m
Length of Day
12h 35m
Waxing Crescent, 6% of the Moon is Illuminated
Apr 12
Waxing Crescent
Apr 18
First Quarter
Apr 25
Full
May 2
Last Quarter
May 9
New

Hourly Weather History & Observations

Time (HST) Temp. Heat Index Dew Point Humidity Pressure Visibility Wind Dir Wind Speed Gust Speed Precip Events Conditions
12:53 AM 73.0 °F - 66.9 °F 81% 30.01 in 10.0 mi Calm Calm - N/A   Overcast
1:53 AM 73.0 °F - 66.0 °F 79% 29.99 in 10.0 mi Calm Calm - N/A   Mostly Cloudy
2:53 AM 73.0 °F - 66.0 °F 79% 29.98 in 10.0 mi Calm Calm - N/A   Overcast
3:53 AM 73.0 °F - 66.0 °F 79% 29.97 in 10.0 mi Calm Calm - N/A   Overcast
4:53 AM 73.0 °F - 66.9 °F 81% 29.98 in 10.0 mi ENE 3.5 mph - N/A   Overcast
5:53 AM 73.0 °F - 66.0 °F 79% 29.99 in 10.0 mi ENE 3.5 mph - N/A   Overcast
6:53 AM 72.0 °F - 66.0 °F 81% 29.99 in 10.0 mi Calm Calm - N/A   Mostly Cloudy
7:53 AM 75.0 °F - 68.0 °F 79% 30.00 in 10.0 mi East 5.8 mph - N/A   Mostly Cloudy
8:53 AM 77.0 °F - 69.1 °F 76% 30.02 in 10.0 mi East 6.9 mph - N/A   Mostly Cloudy
9:53 AM 78.1 °F - 68.0 °F 71% 30.03 in 10.0 mi SE 5.8 mph - N/A   Mostly Cloudy
10:53 AM 80.1 °F 82.9 °F 69.1 °F 69% 30.01 in 10.0 mi SSE 10.4 mph - N/A   Partly Cloudy
11:53 AM 80.1 °F 82.9 °F 69.1 °F 69% 30.01 in 10.0 mi South 10.4 mph - N/A   Partly Cloudy
12:53 PM 82.0 °F 85.5 °F 69.1 °F 65% 29.98 in 10.0 mi SSE 13.8 mph - N/A   Scattered Clouds
1:53 PM 81.0 °F 84.1 °F 69.1 °F 67% 29.97 in 10.0 mi SSE 13.8 mph - N/A   Scattered Clouds
2:53 PM 80.1 °F 82.9 °F 69.1 °F 69% 29.96 in 9.0 mi SSE 11.5 mph - N/A   Clear
3:53 PM 79.0 °F - 69.1 °F 72% 29.95 in 10.0 mi SSE 10.4 mph - N/A   Clear
4:53 PM 78.1 °F - 69.1 °F 74% 29.94 in 10.0 mi SSE 9.2 mph - N/A   Scattered Clouds
5:05 PM 77.0 °F - 69.8 °F 78% 29.93 in 10.0 mi SSE 9.2 mph - N/A   Mostly Cloudy
5:40 PM 78.8 °F - 69.8 °F 74% 29.93 in 10.0 mi South 8.1 mph - N/A   Scattered Clouds
5:53 PM 77.0 °F - 66.9 °F 71% 29.96 in 10.0 mi SSE 8.1 mph - N/A   Partly Cloudy
6:53 PM 75.9 °F - 66.9 °F 74% 29.96 in 10.0 mi SE 5.8 mph - N/A   Clear
7:53 PM 73.0 °F - 66.9 °F 81% 29.97 in 10.0 mi ESE 3.5 mph - N/A   Partly Cloudy
8:53 PM 72.0 °F - 66.9 °F 84% 29.99 in 10.0 mi Calm Calm - N/A   Clear
9:53 PM 71.1 °F - 66.9 °F 87% 30.00 in 10.0 mi Calm Calm - N/A   Partly Cloudy
10:53 PM 71.1 °F - 66.9 °F 87% 30.00 in 10.0 mi Calm Calm - N/A   Mostly Cloudy
11:53 PM 72.0 °F - 66.9 °F 84% 29.99 in 10.0 mi Calm Calm - N/A   Mostly Cloudy